Location: Arran
(51.9410°N, 101.7372°W)
Time: 07:49:28
(UTC+00:00)

SWISSCUBE - Pass Details

Date: 18 May 2025
Orbit: 685 x 693 km, 98.4° (Epoch: 20 June)

Event Time Altitude Azimuth Distance (km) Brightness Sun altitude
Rises 04:36:34 0° 26° (NNE) 3,076 ? -13.3°
Reaches altitude 10° 04:39:23 10° 43° (NE) 2,156 ? -13.5°
Maximum altitude 04:42:50 20° 91° (E) 1,581 ? -13.8°
Enters shadow 04:44:36 17° 119° (ESE) 1,746 ? -13.9°
